This is the latest recevied weather packets stored in our database for station/object KO4IDC-13. If no packets are shown the sender has not sent any weather packets the latest 10 day(s).
| Time | Temp. | Humidity | Pressure | Rain* | Wind** | Luminosity | Snow |
|---|---|---|---|---|---|---|---|
| 1778001216 | 16.11° C | 96% | 1011.3 hPa | 0 mm | - | 234 W/m² | - |
| 1778000913 | 16.11° C | 96% | 1011.1 hPa | 1.78 mm | - | 193 W/m² | - |
| 1778000610 | 15.56° C | 96% | 1010.9 hPa | 4.83 mm | - | 171 W/m² | - |
| 1778000305 | 15.56° C | 96% | 1010.8 hPa | 8.89 mm | - | 125 W/m² | - |
| 1778000001 | 15.56° C | 96% | 1011.1 hPa | 8.89 mm | - | 71 W/m² | - |
| 1777999697 | 15.56° C | 96% | 1011.1 hPa | 3.05 mm | - | 83 W/m² | - |
| 1777999394 | 15.56° C | 96% | 1011.2 hPa | 1.78 mm | - | 60 W/m² | - |
| 1777999092 | 15.56° C | 96% | 1011.3 hPa | 3.05 mm | - | 59 W/m² | - |
| 1777998790 | 15.56° C | 96% | 1011.5 hPa | 3.05 mm | - | 67 W/m² | - |
| 1777998488 | 15.56° C | 95% | 1011.8 hPa | 3.05 mm | - | 72 W/m² | - |
| 1777998184 | 15.56° C | 95% | 1011.8 hPa | 3.05 mm | - | 67 W/m² | - |
| 1777997881 | 15.56° C | 95% | 1012.3 hPa | 3.05 mm | - | 67 W/m² | - |
| 1777997579 | 15.56° C | 95% | 1011.9 hPa | 1.27 mm | - | 66 W/m² | - |
| 1777997276 | 15.56° C | 95% | 1012 hPa | 1.78 mm | - | 66 W/m² | - |
| 1777996974 | 15.56° C | 95% | 1011.9 hPa | 4.83 mm | - | 77 W/m² | - |
| 1777996670 | 15.56° C | 95% | 1012.2 hPa | 4.32 mm | - | 58 W/m² | - |
| 1777996366 | 15.56° C | 94% | 1012.4 hPa | 3.05 mm | - | 84 W/m² | - |
| 1777996062 | 15.56° C | 94% | 1012.1 hPa | 3.56 mm | - | 76 W/m² | - |
| 1777995759 | 15.56° C | 94% | 1012.1 hPa | 4.83 mm | - | 88 W/m² | - |
| 1777995455 | 15.56° C | 93% | 1011.8 hPa | 6.1 mm | - | 64 W/m² | - |
| 1777995153 | 15.56° C | 93% | 1012 hPa | 7.11 mm | - | 47 W/m² | - |
| 1777994850 | 15.56° C | 92% | 1011.8 hPa | 7.11 mm | - | 39 W/m² | - |
| 1777994546 | 16.11° C | 92% | 1011.9 hPa | 6.6 mm | - | 27 W/m² | - |
| 1777994246 | 16.11° C | 90% | 1012.3 hPa | 7.87 mm | - | 24 W/m² | - |
| 1777993944 | 17.22° C | 86% | 1012.2 hPa | 4.32 mm | - | 18 W/m² | - |
* Rain latest hour (hover to see other rain measurements)
** Current wind speed in m/s (hover to see current wind gust speed)